Time,TemperatureF,DewpointF,PressureIn,WindDirection,WindDirectionDegrees,WindSpeedMPH,WindSpeedGustMPH,Humidity,HourlyPrecipIn,Conditions,Clouds,dailyrainin,SoftwareType,DateUTC
2013-05-11 00:00:00,49.3,44.5,29.92,SW,221,9.8,-999.0,82,0.00,,,0.00,SSEC-RIG,2013-05-11 05:00:00,
2013-05-11 00:05:00,48.8,44.5,29.92,SW,223,10.6,-999.0,84,0.00,,,0.00,SSEC-RIG,2013-05-11 05:05:00,
2013-05-11 00:10:00,48.6,44.7,29.92,SW,217,10.6,-999.0,85,0.00,,,0.00,SSEC-RIG,2013-05-11 05:10:00,
2013-05-11 00:15:00,48.0,44.7,29.92,SW,221,10.4,-999.0,87,0.00,,,0.00,SSEC-RIG,2013-05-11 05:15:00,
2013-05-11 00:20:00,48.5,44.6,29.92,SW,215,10.9,-999.0,85,0.00,,,0.00,SSEC-RIG,2013-05-11 05:20:00,
2013-05-11 00:30:00,47.5,44.6,29.91,SW,229,11.1,-999.0,88,0.00,,,0.00,SSEC-RIG,2013-05-11 05:30:00,
2013-05-11 00:40:00,47.2,45.0,29.91,WSW,244,13.9,-999.0,91,0.00,,,0.00,SSEC-RIG,2013-05-11 05:40:00,
2013-05-11 00:45:00,47.1,44.9,29.91,WSW,247,13.6,-999.0,91,0.00,,,0.00,SSEC-RIG,2013-05-11 05:45:00,
2013-05-11 00:50:00,47.3,44.9,29.91,WSW,246,14.4,16.3,91,0.00,,,0.00,SSEC-RIG,2013-05-11 05:50:00,
2013-05-11 00:55:00,47.5,44.8,29.90,WSW,247,14.2,16.8,89,0.00,,,0.00,SSEC-RIG,2013-05-11 05:55:00,
2013-05-11 01:00:00,47.5,44.7,29.90,WSW,246,14.5,17.1,89,0.00,,,0.00,SSEC-RIG,2013-05-11 06:00:00,
2013-05-11 01:05:00,47.6,44.7,29.90,WSW,246,14.2,-999.0,89,0.00,,,0.00,SSEC-RIG,2013-05-11 06:05:00,
2013-05-11 01:15:00,48.0,44.6,29.90,WSW,246,15.1,18.4,87,0.00,,,0.00,SSEC-RIG,2013-05-11 06:15:00,
2013-05-11 01:20:00,47.7,44.6,29.90,WSW,246,13.6,16.1,88,0.00,,,0.00,SSEC-RIG,2013-05-11 06:20:00,
2013-05-11 01:25:00,47.6,44.6,29.90,WSW,245,12.7,-999.0,88,0.00,,,0.00,SSEC-RIG,2013-05-11 06:25:00,
2013-05-11 01:30:00,47.7,44.6,29.89,WSW,246,12.4,-999.0,88,0.00,,,0.00,SSEC-RIG,2013-05-11 06:30:00,
2013-05-11 01:35:00,47.7,44.6,29.89,WSW,246,13.8,16.7,88,0.00,,,0.00,SSEC-RIG,2013-05-11 06:35:00,
2013-05-11 01:40:00,47.7,44.6,29.89,WSW,246,13.9,18.1,88,0.00,,,0.00,SSEC-RIG,2013-05-11 06:40:00,
2013-05-11 01:45:00,47.7,44.5,29.89,WSW,245,14.0,18.2,88,0.00,,,0.00,SSEC-RIG,2013-05-11 06:45:00,
2013-05-11 01:50:00,47.7,44.5,29.89,WSW,247,15.5,19.1,87,0.00,,,0.00,SSEC-RIG,2013-05-11 06:50:00,
2013-05-11 01:55:00,47.8,44.4,29.89,WSW,249,16.7,21.6,87,0.00,,,0.00,SSEC-RIG,2013-05-11 06:55:00,
2013-05-11 02:00:00,47.8,44.4,29.89,WSW,248,17.7,21.1,87,0.00,,,0.00,SSEC-RIG,2013-05-11 07:00:00,
2013-05-11 02:05:00,47.8,44.4,29.89,WSW,249,17.4,21.5,87,0.00,,,0.00,SSEC-RIG,2013-05-11 07:05:00,
2013-05-11 02:10:00,47.8,44.4,29.88,WSW,249,18.1,22.2,87,0.00,,,0.00,SSEC-RIG,2013-05-11 07:10:00,
2013-05-11 02:20:00,47.7,44.3,29.88,WSW,247,16.6,20.9,87,0.00,,,0.00,SSEC-RIG,2013-05-11 07:20:00,
2013-05-11 02:25:00,47.4,44.3,29.88,WSW,248,16.1,19.4,88,0.00,,,0.00,SSEC-RIG,2013-05-11 07:25:00,
2013-05-11 02:30:00,47.3,44.3,29.88,WSW,244,16.3,20.4,88,0.00,,,0.00,SSEC-RIG,2013-05-11 07:30:00,
2013-05-11 02:35:00,47.1,44.3,29.88,WSW,243,14.3,17.9,89,0.00,,,0.00,SSEC-RIG,2013-05-11 07:35:00,
2013-05-11 02:40:00,47.1,44.3,29.87,WSW,243,13.8,19.2,89,0.00,,,0.00,SSEC-RIG,2013-05-11 07:40:00,
2013-05-11 02:45:00,47.2,44.3,29.87,WSW,243,14.7,18.4,89,0.00,,,0.00,SSEC-RIG,2013-05-11 07:45:00,
2013-05-11 02:50:00,47.3,44.4,29.87,WSW,242,16.4,20.0,88,0.00,,,0.00,SSEC-RIG,2013-05-11 07:50:00,
2013-05-11 02:55:00,47.2,44.3,29.86,WSW,243,16.0,20.1,89,0.00,,,0.00,SSEC-RIG,2013-05-11 07:55:00,
2013-05-11 03:00:00,47.1,44.3,29.86,WSW,242,15.3,20.7,89,0.00,,,0.00,SSEC-RIG,2013-05-11 08:00:00,
2013-05-11 03:05:00,47.1,44.5,29.86,WSW,243,16.2,20.6,90,0.00,,,0.00,SSEC-RIG,2013-05-11 08:05:00,
2013-05-11 03:10:00,47.3,44.8,29.86,WSW,247,18.3,23.4,90,0.00,,,0.00,SSEC-RIG,2013-05-11 08:10:00,
2013-05-11 03:15:00,47.5,44.9,29.86,WSW,246,17.8,23.0,90,0.00,,,0.00,SSEC-RIG,2013-05-11 08:15:00,
2013-05-11 03:20:00,47.5,45.1,29.86,WSW,244,18.8,25.1,90,0.00,,,0.00,SSEC-RIG,2013-05-11 08:20:00,
2013-05-11 03:25:00,47.6,45.1,29.86,WSW,243,18.0,23.6,90,0.00,,,0.00,SSEC-RIG,2013-05-11 08:25:00,
2013-05-11 03:30:00,47.2,45.0,29.85,WSW,241,17.9,22.0,91,0.00,,,0.00,SSEC-RIG,2013-05-11 08:30:00,
2013-05-11 03:40:00,47.1,45.1,29.85,WSW,242,17.6,21.7,91,0.00,,,0.00,SSEC-RIG,2013-05-11 08:40:00,
2013-05-11 03:45:00,47.0,45.1,29.85,WSW,242,16.4,19.2,92,0.00,,,0.00,SSEC-RIG,2013-05-11 08:45:00,
2013-05-11 03:50:00,47.0,45.1,29.85,WSW,241,17.3,21.5,92,0.00,,,0.00,SSEC-RIG,2013-05-11 08:50:00,
2013-05-11 03:55:00,46.9,45.1,29.85,WSW,243,17.9,24.0,92,0.00,,,0.00,SSEC-RIG,2013-05-11 08:55:00,
2013-05-11 04:00:00,46.8,45.0,29.85,WSW,242,16.2,19.8,92,0.00,,,0.00,SSEC-RIG,2013-05-11 09:00:00,
2013-05-11 04:05:00,46.7,45.0,29.85,WSW,243,17.3,22.2,93,0.00,,,0.00,SSEC-RIG,2013-05-11 09:05:00,
2013-05-11 04:10:00,46.7,45.0,29.85,WSW,242,17.7,22.4,93,0.00,,,0.00,SSEC-RIG,2013-05-11 09:10:00,
2013-05-11 04:15:00,46.7,45.0,29.84,WSW,238,18.2,22.1,93,0.00,,,0.00,SSEC-RIG,2013-05-11 09:15:00,
2013-05-11 04:20:00,46.7,45.0,29.84,SW,235,19.1,24.1,93,0.00,,,0.00,SSEC-RIG,2013-05-11 09:20:00,
2013-05-11 04:25:00,46.5,44.9,29.84,SW,230,17.5,21.7,93,0.00,,,0.00,SSEC-RIG,2013-05-11 09:25:00,
2013-05-11 04:30:00,46.6,45.1,29.83,SW,231,19.4,23.9,93,0.00,,,0.00,SSEC-RIG,2013-05-11 09:30:00,
2013-05-11 04:35:00,46.6,45.1,29.83,SW,229,17.7,21.4,93,0.00,,,0.00,SSEC-RIG,2013-05-11 09:35:00,
2013-05-11 04:40:00,46.7,45.2,29.83,SW,228,17.4,22.9,93,0.00,,,0.00,SSEC-RIG,2013-05-11 09:40:00,
2013-05-11 04:45:00,46.7,45.2,29.83,SW,225,18.0,22.8,93,0.00,,,0.00,SSEC-RIG,2013-05-11 09:45:00,
2013-05-11 04:50:00,46.7,45.2,29.83,SW,224,17.1,21.8,93,0.00,,,0.00,SSEC-RIG,2013-05-11 09:50:00,
2013-05-11 04:55:00,46.8,45.3,29.83,SW,222,17.0,22.7,93,0.00,,,0.00,SSEC-RIG,2013-05-11 09:55:00,
2013-05-11 05:00:00,46.7,45.3,29.83,SW,228,16.5,21.3,94,0.00,,,0.00,SSEC-RIG,2013-05-11 10:00:00,
2013-05-11 05:05:00,46.7,45.3,29.83,SW,228,17.9,23.6,94,0.00,,,0.00,SSEC-RIG,2013-05-11 10:05:00,
2013-05-11 05:10:00,46.8,45.4,29.83,SW,229,15.9,22.8,94,0.00,,,0.00,SSEC-RIG,2013-05-11 10:10:00,
2013-05-11 05:15:00,46.8,45.5,29.82,SW,227,16.4,21.5,94,0.00,,,0.00,SSEC-RIG,2013-05-11 10:15:00,
2013-05-11 05:20:00,46.9,45.6,29.82,SW,222,16.2,21.3,94,0.00,,,0.00,SSEC-RIG,2013-05-11 10:20:00,
2013-05-11 05:25:00,47.0,45.7,29.81,SW,221,17.2,21.3,94,0.00,,,0.00,SSEC-RIG,2013-05-11 10:25:00,
2013-05-11 05:30:00,47.0,45.7,29.81,SW,220,18.4,24.5,94,0.00,,,0.00,SSEC-RIG,2013-05-11 10:30:00,
2013-05-11 05:35:00,47.0,45.7,29.81,SW,221,18.5,22.7,94,0.00,,,0.00,SSEC-RIG,2013-05-11 10:35:00,
2013-05-11 05:40:00,47.0,45.8,29.81,SW,226,18.2,23.8,94,0.00,,,0.00,SSEC-RIG,2013-05-11 10:40:00,
2013-05-11 05:45:00,47.1,45.8,29.81,SW,224,17.2,24.0,94,0.00,,,0.00,SSEC-RIG,2013-05-11 10:45:00,
2013-05-11 05:55:00,47.5,46.1,29.81,SW,228,19.0,23.8,94,0.00,,,0.00,SSEC-RIG,2013-05-11 10:55:00,
2013-05-11 06:00:00,47.6,46.2,29.80,SW,226,18.8,24.5,94,0.00,,,0.00,SSEC-RIG,2013-05-11 11:00:00,
2013-05-11 06:10:00,47.9,46.3,29.81,SW,232,19.9,24.8,93,0.00,,,0.00,SSEC-RIG,2013-05-11 11:10:00,
2013-05-11 06:15:00,48.0,46.4,29.81,SW,232,18.0,23.0,93,0.00,,,0.00,SSEC-RIG,2013-05-11 11:15:00,
2013-05-11 06:20:00,48.1,46.6,29.80,SW,228,18.3,25.7,93,0.00,,,0.00,SSEC-RIG,2013-05-11 11:20:00,
2013-05-11 06:25:00,48.1,46.6,29.80,SW,223,19.7,25.8,93,0.00,,,0.00,SSEC-RIG,2013-05-11 11:25:00,
2013-05-11 06:35:00,48.1,46.8,29.80,SW,218,19.7,23.5,94,0.00,,,0.00,SSEC-RIG,2013-05-11 11:35:00,
2013-05-11 06:40:00,48.1,46.8,29.79,SW,221,18.8,23.6,94,0.00,,,0.00,SSEC-RIG,2013-05-11 11:40:00,
2013-05-11 06:45:00,48.2,46.9,29.79,SW,217,19.5,23.5,94,0.00,,,0.00,SSEC-RIG,2013-05-11 11:45:00,
2013-05-11 06:50:00,48.3,46.9,29.79,SW,217,18.3,23.4,94,0.00,,,0.00,SSEC-RIG,2013-05-11 11:50:00,
2013-05-11 06:55:00,48.3,47.0,29.79,SW,217,16.7,21.6,94,0.00,,,0.00,SSEC-RIG,2013-05-11 11:55:00,
2013-05-11 07:00:00,48.4,47.0,29.79,SW,216,18.6,21.6,93,0.00,,,0.00,SSEC-RIG,2013-05-11 12:00:00,
2013-05-11 07:05:00,48.5,46.9,29.78,SSW,213,17.5,20.9,93,0.00,,,0.00,SSEC-RIG,2013-05-11 12:05:00,
2013-05-11 07:10:00,48.6,46.8,29.78,SW,217,17.4,21.8,92,0.00,,,0.00,SSEC-RIG,2013-05-11 12:10:00,
2013-05-11 07:15:00,48.8,46.9,29.78,SW,215,18.2,23.3,92,0.00,,,0.00,SSEC-RIG,2013-05-11 12:15:00,
2013-05-11 07:20:00,48.8,46.9,29.78,SW,220,19.0,21.5,92,0.00,,,0.00,SSEC-RIG,2013-05-11 12:20:00,
2013-05-11 07:25:00,48.9,47.1,29.78,SW,227,16.4,22.9,92,0.00,,,0.00,SSEC-RIG,2013-05-11 12:25:00,
2013-05-11 07:30:00,49.2,47.3,29.78,SW,229,13.6,18.1,92,0.00,,,0.00,SSEC-RIG,2013-05-11 12:30:00,
2013-05-11 07:35:00,49.3,47.4,29.78,SW,233,14.2,18.3,92,0.00,,,0.00,SSEC-RIG,2013-05-11 12:35:00,
2013-05-11 07:40:00,49.4,47.4,29.78,WSW,237,17.1,21.9,92,0.00,,,0.00,SSEC-RIG,2013-05-11 12:40:00,
2013-05-11 07:45:00,49.5,47.5,29.78,WSW,241,14.7,20.3,92,0.00,,,0.00,SSEC-RIG,2013-05-11 12:45:00,
2013-05-11 07:55:00,49.7,47.5,29.78,WSW,246,14.5,20.6,91,0.00,,,0.00,SSEC-RIG,2013-05-11 12:55:00,
2013-05-11 08:00:00,49.8,47.5,29.78,WSW,244,14.6,21.3,91,0.00,,,0.00,SSEC-RIG,2013-05-11 13:00:00,
2013-05-11 08:05:00,50.0,47.5,29.78,WSW,249,15.4,19.1,90,0.00,,,0.00,SSEC-RIG,2013-05-11 13:05:00,
2013-05-11 08:10:00,50.1,47.4,29.78,WSW,252,16.0,20.3,89,0.00,,,0.00,SSEC-RIG,2013-05-11 13:10:00,
2013-05-11 08:15:00,50.2,47.4,29.78,WSW,254,13.6,20.6,89,0.00,,,0.00,SSEC-RIG,2013-05-11 13:15:00,
2013-05-11 08:20:00,50.3,47.3,29.78,WSW,257,14.4,21.3,89,0.00,,,0.00,SSEC-RIG,2013-05-11 13:20:00,
2013-05-11 08:25:00,50.5,47.1,29.78,WSW,257,13.3,17.4,87,0.00,,,0.00,SSEC-RIG,2013-05-11 13:25:00,
2013-05-11 08:30:00,50.6,47.0,29.78,West,270,15.6,20.6,86,0.00,,,0.00,SSEC-RIG,2013-05-11 13:30:00,
2013-05-11 08:40:00,51.0,46.7,29.78,West,275,12.9,18.2,84,0.00,,,0.00,SSEC-RIG,2013-05-11 13:40:00,
2013-05-11 08:50:00,51.3,46.2,29.78,WNW,287,15.4,19.7,81,0.00,,,0.00,SSEC-RIG,2013-05-11 13:50:00,
2013-05-11 08:55:00,51.4,46.2,29.78,WNW,295,14.0,21.9,81,0.00,,,0.00,SSEC-RIG,2013-05-11 13:55:00,
2013-05-11 09:00:00,51.5,46.1,29.78,WNW,301,20.4,27.7,81,0.00,,,0.00,SSEC-RIG,2013-05-11 14:00:00,
2013-05-11 09:05:00,51.8,46.4,29.78,NW,307,22.6,29.7,81,0.00,,,0.00,SSEC-RIG,2013-05-11 14:05:00,
2013-05-11 09:10:00,51.1,45.8,29.78,NW,314,26.9,39.5,81,0.00,,,0.00,SSEC-RIG,2013-05-11 14:10:00,
2013-05-11 09:15:00,50.4,43.8,29.79,NW,323,29.9,41.9,77,0.00,,,0.00,SSEC-RIG,2013-05-11 14:15:00,
2013-05-11 09:20:00,48.8,42.1,29.80,NNW,332,28.0,37.5,76,0.00,,,0.00,SSEC-RIG,2013-05-11 14:20:00,
2013-05-11 09:25:00,48.1,40.9,29.80,NNW,332,26.0,35.8,75,0.00,,,0.00,SSEC-RIG,2013-05-11 14:25:00,
2013-05-11 09:30:00,47.6,40.2,29.81,NNW,334,23.5,30.9,74,0.00,,,0.00,SSEC-RIG,2013-05-11 14:30:00,
2013-05-11 09:35:00,47.4,39.1,29.81,NNW,332,27.6,38.1,72,0.00,,,0.00,SSEC-RIG,2013-05-11 14:35:00,
2013-05-11 09:40:00,46.9,38.0,29.82,NNW,334,28.4,42.3,70,0.00,,,0.00,SSEC-RIG,2013-05-11 14:40:00,
2013-05-11 09:45:00,47.1,37.6,29.82,NNW,335,31.2,42.1,68,0.01,,,0.01,SSEC-RIG,2013-05-11 14:45:00,
2013-05-11 09:50:00,46.6,37.9,29.82,NNW,336,26.3,33.5,71,0.00,,,0.01,SSEC-RIG,2013-05-11 14:50:00,
2013-05-11 09:55:00,46.5,37.3,29.82,NNW,337,26.8,34.9,69,0.00,,,0.01,SSEC-RIG,2013-05-11 14:55:00,
2013-05-11 10:00:00,46.3,37.2,29.83,NNW,340,22.4,31.4,69,0.00,,,0.01,SSEC-RIG,2013-05-11 15:00:00,
2013-05-11 10:05:00,46.3,36.4,29.83,NNW,340,26.5,34.9,67,0.00,,,0.01,SSEC-RIG,2013-05-11 15:05:00,
2013-05-11 10:10:00,46.4,36.0,29.83,NNW,341,24.2,33.8,66,0.00,,,0.01,SSEC-RIG,2013-05-11 15:10:00,
2013-05-11 10:15:00,46.6,35.3,29.83,NNW,345,24.1,33.9,64,0.00,,,0.01,SSEC-RIG,2013-05-11 15:15:00,
2013-05-11 10:20:00,46.6,35.3,29.83,NNW,341,20.8,26.9,63,0.00,,,0.01,SSEC-RIG,2013-05-11 15:20:00,
2013-05-11 10:25:00,46.8,35.7,29.83,NNW,340,18.9,26.9,64,0.00,,,0.01,SSEC-RIG,2013-05-11 15:25:00,
2013-05-11 10:30:00,47.2,36.3,29.84,NW,322,18.9,27.9,65,0.00,,,0.01,SSEC-RIG,2013-05-11 15:30:00,
2013-05-11 10:35:00,47.1,35.9,29.84,NW,326,17.9,28.9,64,0.00,,,0.01,SSEC-RIG,2013-05-11 15:35:00,
2013-05-11 10:40:00,47.9,35.0,29.83,NW,323,24.5,34.1,60,0.00,,,0.01,SSEC-RIG,2013-05-11 15:40:00,
2013-05-11 10:50:00,48.5,32.3,29.84,NNW,334,22.9,35.9,52,0.00,,,0.01,SSEC-RIG,2013-05-11 15:50:00,
2013-05-11 10:55:00,48.3,31.6,29.84,NNW,333,23.3,31.2,52,0.00,,,0.01,SSEC-RIG,2013-05-11 15:55:00,
2013-05-11 11:00:00,48.4,31.3,29.84,NNW,338,25.8,32.9,50,0.00,,,0.01,SSEC-RIG,2013-05-11 16:00:00,
2013-05-11 11:05:00,48.4,31.7,29.84,NNW,337,24.7,30.7,52,0.00,,,0.01,SSEC-RIG,2013-05-11 16:05:00,
2013-05-11 11:10:00,48.5,31.3,29.85,NNW,330,20.3,30.5,50,0.00,,,0.01,SSEC-RIG,2013-05-11 16:10:00,
2013-05-11 11:15:00,48.7,30.5,29.85,NNW,332,23.3,32.0,48,0.00,,,0.01,SSEC-RIG,2013-05-11 16:15:00,
2013-05-11 11:20:00,48.2,31.1,29.85,NNW,340,25.1,32.3,50,0.00,,,0.01,SSEC-RIG,2013-05-11 16:20:00,
2013-05-11 11:25:00,48.4,30.6,29.85,NW,321,23.9,32.3,49,0.00,,,0.01,SSEC-RIG,2013-05-11 16:25:00,
2013-05-11 11:30:00,48.7,30.5,29.86,NW,325,24.4,31.5,48,0.00,,,0.01,SSEC-RIG,2013-05-11 16:30:00,
2013-05-11 11:35:00,48.7,29.4,29.86,NNW,332,20.4,29.7,46,0.00,,,0.01,SSEC-RIG,2013-05-11 16:35:00,
2013-05-11 11:40:00,48.9,30.0,29.86,NNW,328,20.0,27.8,47,0.00,,,0.01,SSEC-RIG,2013-05-11 16:40:00,
2013-05-11 11:45:00,49.0,27.7,29.86,NW,322,26.6,34.4,43,0.00,,,0.01,SSEC-RIG,2013-05-11 16:45:00,
2013-05-11 11:50:00,48.7,26.9,29.86,NNW,335,22.6,28.9,42,0.00,,,0.01,SSEC-RIG,2013-05-11 16:50:00,
2013-05-11 11:55:00,48.5,27.2,29.86,NNW,343,25.1,33.0,42,0.00,,,0.01,SSEC-RIG,2013-05-11 16:55:00,
2013-05-11 12:00:00,49.1,27.0,29.86,NNW,330,28.1,36.5,41,0.00,,,0.01,SSEC-RIG,2013-05-11 17:00:00,
2013-05-11 12:05:00,48.8,25.7,29.86,NNW,342,27.0,32.8,39,0.00,,,0.01,SSEC-RIG,2013-05-11 17:05:00,
2013-05-11 12:10:00,49.0,27.7,29.86,NNW,338,24.7,33.1,43,0.00,,,0.01,SSEC-RIG,2013-05-11 17:10:00,
2013-05-11 12:15:00,48.8,25.9,29.86,NNW,337,27.3,38.0,40,0.00,,,0.01,SSEC-RIG,2013-05-11 17:15:00,
2013-05-11 12:25:00,49.5,28.0,29.86,NW,323,20.5,34.2,42,0.00,,,0.01,SSEC-RIG,2013-05-11 17:25:00,
2013-05-11 12:30:00,50.1,25.9,29.87,NW,318,25.9,40.1,38,0.00,,,0.01,SSEC-RIG,2013-05-11 17:30:00,
2013-05-11 12:40:00,49.8,27.0,29.87,NW,323,23.8,34.5,40,0.00,,,0.01,SSEC-RIG,2013-05-11 17:40:00,
2013-05-11 12:45:00,49.2,27.5,29.87,NNW,336,26.1,35.3,42,0.00,,,0.01,SSEC-RIG,2013-05-11 17:45:00,
2013-05-11 12:50:00,48.9,27.7,29.87,NNW,336,24.2,33.2,43,0.00,,,0.01,SSEC-RIG,2013-05-11 17:50:00,
2013-05-11 12:55:00,49.3,28.9,29.88,NNW,330,25.2,33.3,44,0.00,,,0.01,SSEC-RIG,2013-05-11 17:55:00,
2013-05-11 13:00:00,49.0,29.1,29.88,NW,325,21.7,30.3,45,0.00,,,0.01,SSEC-RIG,2013-05-11 18:00:00,
2013-05-11 13:05:00,49.8,28.3,29.88,NW,316,22.1,30.7,42,0.00,,,0.01,SSEC-RIG,2013-05-11 18:05:00,
2013-05-11 13:10:00,49.9,28.1,29.88,NW,321,16.9,25.5,42,0.00,,,0.01,SSEC-RIG,2013-05-11 18:10:00,
2013-05-11 13:15:00,49.6,26.9,29.88,NW,326,25.7,36.8,40,0.00,,,0.01,SSEC-RIG,2013-05-11 18:15:00,
2013-05-11 13:20:00,49.7,24.7,29.89,NW,323,28.8,37.4,36,0.00,,,0.01,SSEC-RIG,2013-05-11 18:20:00,
2013-05-11 13:25:00,49.8,23.7,29.89,NNW,328,24.2,33.8,35,0.00,,,0.01,SSEC-RIG,2013-05-11 18:25:00,
2013-05-11 13:30:00,49.6,24.0,29.89,NNW,330,25.6,32.2,36,0.00,,,0.01,SSEC-RIG,2013-05-11 18:30:00,
2013-05-11 13:35:00,49.1,24.0,29.89,NNW,328,22.5,30.6,36,0.00,,,0.01,SSEC-RIG,2013-05-11 18:35:00,
2013-05-11 13:40:00,50.0,24.3,29.90,NW,321,22.0,35.5,36,0.00,,,0.01,SSEC-RIG,2013-05-11 18:40:00,
2013-05-11 13:45:00,49.7,22.2,29.90,NW,326,25.6,36.1,33,0.00,,,0.01,SSEC-RIG,2013-05-11 18:45:00,
2013-05-11 13:50:00,49.8,22.2,29.90,NW,320,25.3,33.3,33,0.00,,,0.01,SSEC-RIG,2013-05-11 18:50:00,
2013-05-11 14:00:00,49.8,23.4,29.90,NW,314,21.9,33.9,34,0.00,,,0.01,SSEC-RIG,2013-05-11 19:00:00,
2013-05-11 14:05:00,50.0,23.9,29.90,NW,320,20.9,32.1,35,0.00,,,0.01,SSEC-RIG,2013-05-11 19:05:00,
2013-05-11 14:10:00,49.9,24.2,29.90,NW,325,22.2,30.1,35,0.00,,,0.01,SSEC-RIG,2013-05-11 19:10:00,
2013-05-11 14:15:00,49.8,23.3,29.90,NW,320,22.9,34.5,34,0.00,,,0.01,SSEC-RIG,2013-05-11 19:15:00,
2013-05-11 14:20:00,49.6,23.8,29.90,NW,313,25.0,33.7,35,0.00,,,0.01,SSEC-RIG,2013-05-11 19:20:00,
2013-05-11 14:25:00,50.2,23.4,29.90,NW,314,23.4,33.7,34,0.00,,,0.01,SSEC-RIG,2013-05-11 19:25:00,
2013-05-11 14:30:00,50.4,23.7,29.90,NW,316,25.9,32.6,34,0.00,,,0.01,SSEC-RIG,2013-05-11 19:30:00,
2013-05-11 14:35:00,49.3,25.3,29.91,NW,313,21.8,31.9,38,0.00,,,0.01,SSEC-RIG,2013-05-11 19:35:00,
2013-05-11 14:45:00,49.4,24.8,29.91,NNW,331,27.6,40.2,37,0.00,,,0.01,SSEC-RIG,2013-05-11 19:45:00,
2013-05-11 14:50:00,48.0,27.6,29.92,NW,317,25.3,32.9,44,0.00,,,0.01,SSEC-RIG,2013-05-11 19:50:00,
2013-05-11 14:55:00,48.0,26.5,29.92,NW,319,24.6,34.0,42,0.00,,,0.01,SSEC-RIG,2013-05-11 19:55:00,
2013-05-11 15:00:00,48.1,27.0,29.92,NW,320,25.5,32.8,43,0.00,,,0.01,SSEC-RIG,2013-05-11 20:00:00,
2013-05-11 15:05:00,47.9,27.1,29.92,NW,312,17.7,25.6,43,0.00,,,0.01,SSEC-RIG,2013-05-11 20:05:00,
2013-05-11 15:10:00,48.2,26.1,29.92,NW,307,21.1,27.4,41,0.00,,,0.01,SSEC-RIG,2013-05-11 20:10:00,
2013-05-11 15:15:00,48.1,26.2,29.92,NW,319,24.7,41.9,41,0.00,,,0.01,SSEC-RIG,2013-05-11 20:15:00,
2013-05-11 15:25:00,46.5,27.7,29.93,NW,323,14.8,22.7,47,0.00,,,0.01,SSEC-RIG,2013-05-11 20:25:00,
2013-05-11 15:30:00,47.6,25.9,29.92,NW,316,20.1,27.2,42,0.00,,,0.01,SSEC-RIG,2013-05-11 20:30:00,
2013-05-11 15:35:00,48.0,25.4,29.92,NW,317,17.8,28.3,40,0.00,,,0.01,SSEC-RIG,2013-05-11 20:35:00,
2013-05-11 15:40:00,48.8,24.6,29.92,NW,317,21.5,31.1,38,0.00,,,0.01,SSEC-RIG,2013-05-11 20:40:00,
2013-05-11 15:45:00,49.3,23.7,29.92,NW,310,23.6,32.3,36,0.00,,,0.01,SSEC-RIG,2013-05-11 20:45:00,
2013-05-11 15:55:00,49.0,22.6,29.93,NW,318,18.2,29.0,34,0.00,,,0.01,SSEC-RIG,2013-05-11 20:55:00,
2013-05-11 16:00:00,49.0,22.6,29.92,NW,309,19.3,28.3,34,0.00,,,0.01,SSEC-RIG,2013-05-11 21:00:00,
2013-05-11 16:05:00,48.8,25.3,29.92,WNW,303,25.1,34.3,39,0.00,,,0.01,SSEC-RIG,2013-05-11 21:05:00,
2013-05-11 16:15:00,48.1,23.7,29.93,NNW,329,24.0,31.0,37,0.00,,,0.01,SSEC-RIG,2013-05-11 21:15:00,
2013-05-11 16:20:00,48.1,22.1,29.93,NNW,334,22.8,28.4,35,0.00,,,0.01,SSEC-RIG,2013-05-11 21:20:00,
2013-05-11 16:25:00,48.8,23.5,29.93,NW,324,16.3,23.0,36,0.00,,,0.01,SSEC-RIG,2013-05-11 21:25:00,
2013-05-11 16:35:00,49.4,18.7,29.93,NW,320,24.1,34.8,29,0.00,,,0.01,SSEC-RIG,2013-05-11 21:35:00,
2013-05-11 16:40:00,49.6,19.4,29.93,NW,319,19.5,28.1,29,0.00,,,0.01,SSEC-RIG,2013-05-11 21:40:00,
2013-05-11 16:45:00,49.8,19.0,29.93,NW,320,23.3,32.3,28,0.00,,,0.01,SSEC-RIG,2013-05-11 21:45:00,
2013-05-11 16:50:00,49.9,19.5,29.93,NW,318,22.0,30.2,29,0.00,,,0.01,SSEC-RIG,2013-05-11 21:50:00,
2013-05-11 16:55:00,49.7,19.6,29.93,NW,325,22.4,29.6,29,0.00,,,0.01,SSEC-RIG,2013-05-11 21:55:00,
2013-05-11 17:00:00,49.2,20.3,29.94,NNW,327,17.9,23.4,31,0.00,,,0.01,SSEC-RIG,2013-05-11 22:00:00,
2013-05-11 17:05:00,48.7,24.8,29.94,NNW,334,31.0,41.7,38,0.00,,,0.01,SSEC-RIG,2013-05-11 22:05:00,
2013-05-11 17:10:00,46.1,26.6,29.95,NNW,341,29.5,43.9,45,0.00,,,0.01,SSEC-RIG,2013-05-11 22:10:00,
2013-05-11 17:15:00,45.8,25.2,29.95,NNW,336,18.0,26.2,43,0.00,,,0.01,SSEC-RIG,2013-05-11 22:15:00,
2013-05-11 17:20:00,46.6,25.1,29.95,NNW,338,18.5,23.8,42,0.00,,,0.01,SSEC-RIG,2013-05-11 22:20:00,
2013-05-11 17:25:00,47.3,25.8,29.95,NNW,335,19.5,29.9,42,0.00,,,0.01,SSEC-RIG,2013-05-11 22:25:00,
2013-05-11 17:35:00,48.6,22.9,29.95,NNW,331,28.0,35.0,35,0.00,,,0.01,SSEC-RIG,2013-05-11 22:35:00,
2013-05-11 17:40:00,48.6,23.9,29.95,NNW,332,26.8,36.3,37,0.00,,,0.01,SSEC-RIG,2013-05-11 22:40:00,
2013-05-11 17:45:00,48.3,23.6,29.96,NNW,333,26.1,34.3,37,0.00,,,0.01,SSEC-RIG,2013-05-11 22:45:00,
2013-05-11 17:50:00,48.2,23.6,29.96,NNW,335,25.6,31.5,37,0.00,,,0.01,SSEC-RIG,2013-05-11 22:50:00,
2013-05-11 17:55:00,48.1,23.6,29.96,NNW,338,26.3,32.6,37,0.00,,,0.01,SSEC-RIG,2013-05-11 22:55:00,
2013-05-11 18:00:00,48.1,22.7,29.96,NNW,335,23.4,31.1,36,0.00,,,0.01,SSEC-RIG,2013-05-11 23:00:00,
2013-05-11 18:10:00,48.0,21.3,29.96,NNW,331,21.1,29.0,34,0.00,,,0.01,SSEC-RIG,2013-05-11 23:10:00,
2013-05-11 18:15:00,48.2,20.9,29.96,NNW,330,22.9,29.4,33,0.00,,,0.01,SSEC-RIG,2013-05-11 23:15:00,
2013-05-11 18:20:00,48.3,21.2,29.96,NNW,329,21.1,31.0,33,0.00,,,0.01,SSEC-RIG,2013-05-11 23:20:00,
2013-05-11 18:30:00,48.2,23.1,29.96,NNW,335,18.4,26.9,36,0.00,,,0.01,SSEC-RIG,2013-05-11 23:30:00,
2013-05-11 18:35:00,47.1,25.7,29.97,NNW,345,22.6,30.1,42,0.00,,,0.01,SSEC-RIG,2013-05-11 23:35:00,
2013-05-11 18:40:00,46.7,26.9,29.97,NNW,342,22.2,27.4,45,0.00,,,0.01,SSEC-RIG,2013-05-11 23:40:00,
2013-05-11 18:45:00,46.8,26.9,29.97,NNW,343,22.7,29.0,45,0.00,,,0.01,SSEC-RIG,2013-05-11 23:45:00,
2013-05-11 18:50:00,46.8,27.1,29.97,NNW,336,19.7,27.9,45,0.00,,,0.01,SSEC-RIG,2013-05-11 23:50:00,
2013-05-11 18:55:00,47.1,26.8,29.97,NNW,339,18.9,23.1,44,0.00,,,0.01,SSEC-RIG,2013-05-11 23:55:00,
2013-05-11 19:00:00,47.0,25.5,29.97,NNW,333,19.6,29.6,42,0.00,,,0.01,SSEC-RIG,2013-05-12 00:00:00,
2013-05-11 19:05:00,47.0,22.6,29.97,NNW,334,23.5,30.0,37,0.00,,,0.00,SSEC-RIG,2013-05-12 00:05:00,
2013-05-11 19:10:00,47.1,22.4,29.97,NNW,327,21.0,28.8,37,0.00,,,0.00,SSEC-RIG,2013-05-12 00:10:00,
2013-05-11 19:15:00,47.3,21.9,29.97,NNW,329,25.0,33.1,35,0.00,,,0.00,SSEC-RIG,2013-05-12 00:15:00,
2013-05-11 19:20:00,47.5,22.6,29.97,NW,322,23.5,31.3,36,0.00,,,0.00,SSEC-RIG,2013-05-12 00:20:00,
2013-05-11 19:25:00,47.2,23.4,29.97,NNW,330,24.4,36.1,38,0.00,,,0.00,SSEC-RIG,2013-05-12 00:25:00,
2013-05-11 19:30:00,45.7,26.5,29.98,North,353,28.7,36.4,46,0.00,,,0.00,SSEC-RIG,2013-05-12 00:30:00,
2013-05-11 19:40:00,44.9,28.4,29.98,NNW,340,19.7,27.9,51,0.00,,,0.00,SSEC-RIG,2013-05-12 00:40:00,
2013-05-11 19:45:00,45.0,28.3,29.98,NNW,344,17.7,25.6,51,0.00,,,0.00,SSEC-RIG,2013-05-12 00:45:00,
2013-05-11 19:50:00,45.0,28.1,29.98,NNW,340,15.6,20.2,50,0.00,,,0.00,SSEC-RIG,2013-05-12 00:50:00,
2013-05-11 19:55:00,45.0,28.0,29.98,NNW,330,12.7,20.2,50,0.00,,,0.00,SSEC-RIG,2013-05-12 00:55:00,
2013-05-11 20:00:00,44.9,26.7,29.98,NNW,331,14.2,20.3,48,0.00,,,0.00,SSEC-RIG,2013-05-12 01:00:00,
2013-05-11 20:05:00,44.8,26.7,29.98,NNW,327,11.6,17.9,48,0.00,,,0.00,SSEC-RIG,2013-05-12 01:05:00,
2013-05-11 20:17:00,44.7,26.6,29.99,NW,325,14.5,19.0,48,0.00,,,0.00,SSEC-RIG,2013-05-12 01:17:00,
2013-05-11 20:25:00,44.7,26.6,29.99,NW,318,12.6,-999.0,48,0.00,,,0.00,SSEC-RIG,2013-05-12 01:25:00,
2013-05-11 20:30:00,44.6,26.0,29.99,NW,317,15.5,19.0,47,0.00,,,0.00,SSEC-RIG,2013-05-12 01:30:00,
2013-05-11 20:35:00,44.6,26.3,29.99,NW,322,13.5,19.3,47,0.00,,,0.00,SSEC-RIG,2013-05-12 01:35:00,
2013-05-11 20:40:00,44.5,26.4,29.99,NW,326,14.2,20.0,48,0.00,,,0.00,SSEC-RIG,2013-05-12 01:40:00,
2013-05-11 20:45:00,44.5,26.4,30.00,NW,321,14.6,20.7,48,0.00,,,0.00,SSEC-RIG,2013-05-12 01:45:00,
2013-05-11 20:50:00,44.5,25.9,30.00,NW,322,14.3,22.6,47,0.00,,,0.00,SSEC-RIG,2013-05-12 01:50:00,
2013-05-11 20:55:00,44.4,25.6,30.00,NW,319,17.1,23.8,47,0.00,,,0.00,SSEC-RIG,2013-05-12 01:55:00,
2013-05-11 21:00:00,44.4,25.3,30.00,NW,322,16.9,22.4,46,0.00,,,0.00,SSEC-RIG,2013-05-12 02:00:00,
2013-05-11 21:05:00,44.3,25.0,30.00,NW,320,19.5,26.9,45,0.00,,,0.00,SSEC-RIG,2013-05-12 02:05:00,
2013-05-11 21:10:00,44.2,24.9,30.00,NW,321,17.5,23.5,45,0.00,,,0.00,SSEC-RIG,2013-05-12 02:10:00,
2013-05-11 21:15:00,44.2,24.6,30.00,NW,318,19.1,25.5,45,0.00,,,0.00,SSEC-RIG,2013-05-12 02:15:00,
2013-05-11 21:20:00,44.0,25.0,30.00,NW,323,17.6,22.7,46,0.00,,,0.00,SSEC-RIG,2013-05-12 02:20:00,
2013-05-11 21:25:00,44.0,25.3,30.00,NW,319,14.2,19.8,47,0.00,,,0.00,SSEC-RIG,2013-05-12 02:25:00,
2013-05-11 21:30:00,43.9,25.3,30.00,NW,316,15.7,20.5,47,0.00,,,0.00,SSEC-RIG,2013-05-12 02:30:00,
2013-05-11 21:35:00,43.8,25.3,30.00,NW,316,13.2,19.2,47,0.00,,,0.00,SSEC-RIG,2013-05-12 02:35:00,
2013-05-11 21:40:00,43.8,25.0,30.01,NW,315,12.8,17.7,46,0.00,,,0.00,SSEC-RIG,2013-05-12 02:40:00,
2013-05-11 21:45:00,43.8,24.4,30.01,NW,317,14.0,19.7,45,0.00,,,0.00,SSEC-RIG,2013-05-12 02:45:00,
2013-05-11 21:50:00,43.7,24.5,30.01,NW,315,14.5,20.6,46,0.00,,,0.00,SSEC-RIG,2013-05-12 02:50:00,
2013-05-11 21:55:00,43.6,24.5,30.01,NW,313,12.4,20.0,46,0.00,,,0.00,SSEC-RIG,2013-05-12 02:55:00,
2013-05-11 22:00:00,43.4,24.4,30.01,NW,312,12.5,17.0,46,0.00,,,0.00,SSEC-RIG,2013-05-12 03:00:00,
2013-05-11 22:05:00,43.4,24.2,30.01,NW,313,12.5,17.3,46,0.00,,,0.00,SSEC-RIG,2013-05-12 03:05:00,
2013-05-11 22:10:00,43.3,24.2,30.01,NW,311,13.0,17.9,46,0.00,,,0.00,SSEC-RIG,2013-05-12 03:10:00,
2013-05-11 22:15:00,43.2,24.0,30.01,NW,314,14.1,19.3,46,0.00,,,0.00,SSEC-RIG,2013-05-12 03:15:00,
2013-05-11 22:20:00,43.1,23.6,30.01,NW,312,15.5,25.5,45,0.00,,,0.00,SSEC-RIG,2013-05-12 03:20:00,
2013-05-11 22:25:00,43.1,23.4,30.01,NW,313,14.4,19.9,45,0.00,,,0.00,SSEC-RIG,2013-05-12 03:25:00,
2013-05-11 22:30:00,43.0,23.5,30.01,NW,316,13.5,18.8,45,0.00,,,0.00,SSEC-RIG,2013-05-12 03:30:00,
2013-05-11 22:35:00,43.0,23.2,30.01,NW,310,12.8,20.7,44,0.00,,,0.00,SSEC-RIG,2013-05-12 03:35:00,
2013-05-11 22:40:00,42.9,23.2,30.01,NW,306,13.0,18.7,45,0.00,,,0.00,SSEC-RIG,2013-05-12 03:40:00,
2013-05-11 22:45:00,42.9,22.7,30.01,NW,312,15.0,21.4,43,0.00,,,0.00,SSEC-RIG,2013-05-12 03:45:00,
2013-05-11 22:50:00,42.8,22.6,30.01,NW,312,16.4,21.6,44,0.00,,,0.00,SSEC-RIG,2013-05-12 03:50:00,
2013-05-11 23:00:00,42.7,22.4,30.01,NW,309,15.2,22.6,43,0.00,,,0.00,SSEC-RIG,2013-05-12 04:00:00,
2013-05-11 23:05:00,42.7,22.4,30.01,NW,309,16.1,22.4,43,0.00,,,0.00,SSEC-RIG,2013-05-12 04:05:00,
2013-05-11 23:10:00,42.6,22.4,30.01,NW,307,14.2,21.1,43,0.00,,,0.00,SSEC-RIG,2013-05-12 04:10:00,
2013-05-11 23:15:00,42.5,22.4,30.01,NW,305,16.0,20.4,44,0.00,,,0.00,SSEC-RIG,2013-05-12 04:15:00,
2013-05-11 23:20:00,42.4,22.3,30.01,NW,305,14.3,19.1,44,0.00,,,0.00,SSEC-RIG,2013-05-12 04:20:00,
2013-05-11 23:25:00,42.4,22.4,30.01,WNW,296,12.4,16.6,44,0.00,,,0.00,SSEC-RIG,2013-05-12 04:25:00,
2013-05-11 23:30:00,42.2,22.0,30.01,WNW,295,13.7,18.4,44,0.00,,,0.00,SSEC-RIG,2013-05-12 04:30:00,
2013-05-11 23:35:00,42.0,22.1,30.01,WNW,292,12.5,17.7,44,0.00,,,0.00,SSEC-RIG,2013-05-12 04:35:00,
2013-05-11 23:40:00,41.9,22.0,30.01,WNW,291,13.8,18.7,44,0.00,,,0.00,SSEC-RIG,2013-05-12 04:40:00,
2013-05-11 23:45:00,41.9,22.0,30.01,WNW,298,13.1,18.8,44,0.00,,,0.00,SSEC-RIG,2013-05-12 04:45:00,
2013-05-11 23:50:00,41.9,22.1,30.01,WNW,294,13.1,17.6,44,0.00,,,0.00,SSEC-RIG,2013-05-12 04:50:00,
2013-05-11 23:55:00,41.8,22.1,30.01,WNW,297,13.2,18.1,44,0.00,,,0.00,SSEC-RIG,2013-05-12 04:55:00,